Flag for Canada Weather past 2 weeks in Kamloops, British Columbia, Canada

Now
45 °F

Mostly cloudy.


Feels Like: 37 °F
Forecast: 40 / 51 °F
Wind: 16 mph from Northwest

Location: Kamloops

Current Time: Mar 31, 2015 at 10:46:31 AM

Latest Report: Mar 31, 2015 at 10:00 AM


Visibility: 30 mi

Pressure: 29.81 "Hg

Humidity: 66%

Dew point: 34 °F

Location of KamloopsLocation

Historic Weather in Kamloops — Graph

°F

Kamloops temperature yesterday

Maximum temperature yesterday: 68 °F (at 4:00 PM)
Minimum temperature yesterday: 46 °F (at 5:00 AM)
Average temperature yesterday: 55 °F

Past Weeks' High & Low Weather Summary

 TemperatureHumidityPressure
High72 °F (Mar 27, 5:00 PM)93% (Mar 20, 8:00 AM)30.42 "Hg (Mar 20, 8:00 AM)
Low30 °F (Mar 22, 6:00 AM)19% (Mar 16, 2:00 PM)29.61 "Hg (Mar 31, 5:00 AM)
Average49 °F60%30.02 "Hg
* Reported Mar 16 9:00 AM — Mar 31 9:04 AM, Kamloops, Weather by CustomWeather, © 2015

Note: Actual official high and low records may vary slightly from our data, if they occured in-between our weather recording intervals... More about our weather records

Advertising

Kamloops weather history for previous 24 hours

 ConditionsComfort  
Time TempWeatherWind HumidityBarometerVisibility
9:04 AM
Tue, Mar 31
48 °FSprinkles. Partly sunny.25 mph50%29.72 "Hg30 mi
8:00 AM54 °FPartly sunny.28 mph44%29.65 "Hg40 mi
7:00 AM46 °FPassing clouds.7 mph71%29.64 "Hg40 mi
6:00 AM45 °FPassing clouds.3 mph81%29.64 "Hg40 mi
5:00 AM46 °FPassing clouds.15 mph76%29.61 "Hg40 mi
4:00 AM46 °FPassing clouds.15 mph76%29.64 "Hg40 mi
3:00 AM46 °FPassing clouds.14 mph76%29.66 "Hg40 mi
2:00 AM46 °FPassing clouds.3 mph76%29.69 "Hg40 mi
1:00 AM48 °FPassing clouds.6 mph76%29.72 "Hg40 mi
12:00 AM48 °FPassing clouds.3 mph71%29.75 "Hg35 mi
11:00 PM
Mon, Mar 30
52 °FPassing clouds.8 mph67%29.76 "Hg40 mi
10:00 PM54 °FPartly cloudy.13 mph67%29.77 "Hg40 mi
9:00 PM55 °FPassing clouds.9 mph63%29.77 "Hg40 mi
8:00 PM57 °FBroken clouds.10 mph55%29.77 "Hg40 mi
7:00 PM64 °FPartly sunny.2 mph32%29.77 "Hg40 mi
6:00 PM64 °FBroken clouds.14 mph32%29.79 "Hg40 mi
5:00 PM66 °FBroken clouds.17 mph30%29.80 "Hg40 mi
4:00 PM68 °FBroken clouds.10 mph30%29.81 "Hg40 mi
3:00 PM66 °FBroken clouds.21 mph32%29.84 "Hg40 mi
2:00 PM64 °FPartly sunny.5 mph43%29.85 "Hg40 mi
1:00 PM59 °FPartly sunny.18 mph55%29.89 "Hg40 mi
12:00 PM59 °FBroken clouds.15 mph59%29.92 "Hg40 mi
11:00 AM52 °FPartly sunny.13 mph72%29.96 "Hg40 mi
10:00 AM50 °FPartly sunny.15 mph71%29.97 "Hg40 mi
Weather by CustomWeather, © 2015

See weather overviewHow to use our weather pages